When you browse on this site, cookies collect data to enhance your experience and personalize the content and advertising you see.
Visit our Privacy Policy to learn more. By continuing to use the site, you agree to this use of cookies and data.
  • In Hungary
  • List of Countries
  • For 7 days
  • Water Temperature
  • Weather Map
  • News
  • Weather Widgets
  • user-avatar
    Login

    Hourly Weather Pchegatlukay

    Today, 19 February, Wednesday

    Time Temperature Precipitation Wind Pressure Humidity
    00:00 +6°C° 0 mm 1 mps 763 mmHg 71%
    01:00 +5°C° 0 mm 1 mps 763 mmHg 72%
    02:00 +5°C° 0 mm 1 mps 763 mmHg 74%
    03:00 +5°C° 0 mm 1 mps 763 mmHg 76%
    04:00 +5°C° 0 mm 1 mps 762 mmHg 78%
    05:00 +4°C° 0 mm 1 mps 762 mmHg 81%
    06:00 +3°C° 0 mm 0 mps 762 mmHg 83%
    07:00 +4°C° 0 mm 0 mps 762 mmHg 80%
    08:00 +4°C° 0 mm 0 mps 762 mmHg 78%
    09:00 +6°C° 0 mm 1 mps 762 mmHg 74%
    10:00 +7°C° 0 mm 0 mps 761 mmHg 68%
    11:00 +8°C° 0 mm 0 mps 761 mmHg 63%
    12:00 +10°C° 0 mm 0 mps 761 mmHg 57%
    13:00 +11°C° 0 mm 0 mps 760 mmHg 56%
    14:00 +12°C° 0 mm 1 mps 760 mmHg 54%
    15:00 +13°C° 0 mm 1 mps 760 mmHg 53%
    16:00 +12°C° 0 mm 1 mps 760 mmHg 58%
    17:00 +11°C° 0 mm 1 mps 760 mmHg 63%
    18:00 +9°C° 0 mm 1 mps 760 mmHg 68%
    19:00 +9°C° 0 mm 1 mps 760 mmHg 70%
    20:00 +7°C° 0 mm 0 mps 760 mmHg 72%
    21:00 +7°C° 0 mm 0 mps 760 mmHg 75%
    22:00 +7°C° 0 mm 0 mps 760 mmHg 76%
    23:00 +6°C° 0 mm 0 mps 759 mmHg 77%

    Tomorrow, 20 February, Thursday

    Time Temperature Precipitation Wind Pressure Humidity
    00:00 +6°C° 0 mm 0 mps 759 mmHg 79%
    01:00 +6°C° 0 mm 0 mps 759 mmHg 80%
    02:00 +5°C° 0 mm 0 mps 759 mmHg 81%
    03:00 +5°C° 0 mm 0 mps 759 mmHg 82%
    04:00 +5°C° 0 mm 0 mps 759 mmHg 83%
    05:00 +5°C° 0 mm 0 mps 759 mmHg 84%
    06:00 +4°C° 0 mm 0 mps 759 mmHg 84%
    07:00 +5°C° 0 mm 0 mps 759 mmHg 82%
    08:00 +5°C° 0 mm 0 mps 759 mmHg 80%
    09:00 +7°C° 0 mm 1 mps 760 mmHg 78%
    10:00 +8°C° 0 mm 1 mps 759 mmHg 72%
    11:00 +9°C° 0 mm 1 mps 759 mmHg 66%
    12:00 +11°C° 0 mm 1 mps 759 mmHg 60%
    13:00 +11°C° 0 mm 1 mps 759 mmHg 58%
    14:00 +11°C° 0 mm 1 mps 759 mmHg 56%
    15:00 +12°C° 0 mm 1 mps 758 mmHg 55%
    16:00 +10°C° 0 mm 2 mps 758 mmHg 59%
    17:00 +9°C° 0 mm 2 mps 758 mmHg 64%
    18:00 +8°C° 0 mm 2 mps 758 mmHg 69%
    19:00 +8°C° 0 mm 2 mps 758 mmHg 72%
    20:00 +7°C° 0 mm 2 mps 759 mmHg 74%
    21:00 +7°C° 0 mm 2 mps 759 mmHg 77%
    22:00 +6°C° 0 mm 2 mps 759 mmHg 78%
    23:00 +7°C° 0 mm 1 mps 759 mmHg 80%

    Day after tomorrow, 21 February, Friday

    Time Temperature Precipitation Wind Pressure Humidity
    00:00 +7°C° 0 mm 1 mps 759 mmHg 81%
    01:00 +7°C° 0 mm 1 mps 759 mmHg 82%
    02:00 +6°C° 0 mm 1 mps 759 mmHg 82%
    03:00 +6°C° 0 mm 1 mps 759 mmHg 83%
    04:00 +6°C° 0 mm 1 mps 759 mmHg 84%
    05:00 +6°C° 0 mm 1 mps 759 mmHg 85%
    06:00 +6°C° 0 mm 1 mps 759 mmHg 86%
    07:00 +6°C° 0 mm 1 mps 759 mmHg 85%
    08:00 +5°C° 0 mm 2 mps 759 mmHg 84%
    09:00 +6°C° 0 mm 2 mps 759 mmHg 83%
    16:00 +11°C° 0 mm 1 mps 758 mmHg 66%
    17:00 +10°C° 0 mm 1 mps 759 mmHg 71%
    18:00 +9°C° 0 mm 1 mps 759 mmHg 75%
    19:00 +9°C° 0 mm 1 mps 759 mmHg 77%
    20:00 +7°C° 0 mm 2 mps 759 mmHg 79%
    21:00 +7°C° 0 mm 2 mps 760 mmHg 81%
    22:00 +7°C° 0 mm 2 mps 760 mmHg 82%
    23:00 +7°C° 0 mm 1 mps 759 mmHg 83%

    22 February, Saturday

    Time Temperature Precipitation Wind Pressure Humidity
    00:00 +7°C° 0 mm 1 mps 759 mmHg 84%
    01:00 +7°C° 0 mm 1 mps 759 mmHg 85%
    02:00 +6°C° 0 mm 2 mps 759 mmHg 86%
    03:00 +5°C° 0 mm 2 mps 759 mmHg 87%
    04:00 +5°C° 0 mm 2 mps 759 mmHg 87%
    05:00 +5°C° 0 mm 2 mps 759 mmHg 87%
    06:00 +5°C° 0 mm 2 mps 759 mmHg 88%
    07:00 +5°C° 0.1 mm 2 mps 760 mmHg 87%
    08:00 +5°C° 0.1 mm 2 mps 760 mmHg 86%
    09:00 +5°C° 0.1 mm 2 mps 760 mmHg 85%
    10:00 +6°C° 0.4 mm 2 mps 760 mmHg 84%
    11:00 +6°C° 0.4 mm 2 mps 761 mmHg 83%
    12:00 +6°C° 0.4 mm 2 mps 761 mmHg 82%
    13:00 +7°C° 0.2 mm 2 mps 761 mmHg 80%
    14:00 +7°C° 0.2 mm 2 mps 761 mmHg 78%
    15:00 +8°C° 0.2 mm 2 mps 760 mmHg 76%
    16:00 +8°C° 0.2 mm 2 mps 761 mmHg 79%
    17:00 +7°C° 0.2 mm 2 mps 761 mmHg 81%
    18:00 +7°C° 0.2 mm 2 mps 761 mmHg 84%
    19:00 +7°C° 0.1 mm 2 mps 761 mmHg 85%
    20:00 +7°C° 0.1 mm 2 mps 761 mmHg 85%
    21:00 +6°C° 0.1 mm 2 mps 762 mmHg 86%
    22:00 +6°C° 0.1 mm 2 mps 762 mmHg 86%
    23:00 +6°C° 0.1 mm 2 mps 762 mmHg 87%

    23 February, Sunday

    Time Temperature Precipitation Wind Pressure Humidity
    00:00 +7°C° 0.1 mm 1 mps 762 mmHg 87%
    01:00 +6°C° 0.1 mm 2 mps 762 mmHg 88%
    02:00 +6°C° 0.1 mm 2 mps 762 mmHg 88%
    03:00 +5°C° 0.1 mm 2 mps 762 mmHg 89%
    04:00 +5°C° 0.1 mm 2 mps 762 mmHg 89%
    05:00 +6°C° 0.1 mm 1 mps 762 mmHg 89%
    06:00 +6°C° 0.1 mm 1 mps 762 mmHg 90%
    07:00 +6°C° 0.1 mm 1 mps 763 mmHg 90%
    08:00 +6°C° 0.1 mm 1 mps 763 mmHg 90%
    09:00 +6°C° 0.1 mm 1 mps 763 mmHg 89%
    10:00 +5°C° 0.1 mm 2 mps 763 mmHg 88%
    11:00 +5°C° 0.1 mm 2 mps 763 mmHg 87%
    12:00 +6°C° 0.1 mm 2 mps 763 mmHg 86%
    13:00 +5°C° 0 mm 3 mps 763 mmHg 84%
    14:00 +5°C° 0 mm 3 mps 763 mmHg 82%
    15:00 +6°C° 0 mm 4 mps 762 mmHg 80%
    16:00 +5°C° 0 mm 4 mps 762 mmHg 80%
    17:00 +5°C° 0 mm 4 mps 762 mmHg 79%
    18:00 +5°C° 0 mm 4 mps 762 mmHg 78%
    19:00 +4°C° 0 mm 4 mps 762 mmHg 77%
    20:00 +3°C° 0 mm 5 mps 763 mmHg 77%
    21:00 +3°C° 0 mm 6 mps 763 mmHg 76%
    22:00 +3°C° 0 mm 6 mps 763 mmHg 76%
    23:00 +3°C° 0 mm 6 mps 762 mmHg 76%

    24 February, Monday

    Time Temperature Precipitation Wind Pressure Humidity
    00:00 +3°C° 0 mm 7 mps 762 mmHg 77%
    01:00 +3°C° 0 mm 7 mps 762 mmHg 76%
    02:00 +3°C° 0 mm 7 mps 762 mmHg 76%
    03:00 +3°C° 0 mm 7 mps 761 mmHg 75%
    04:00 +3°C° 0 mm 7 mps 761 mmHg 75%
    05:00 +3°C° 0 mm 7 mps 761 mmHg 75%
    06:00 +3°C° 0 mm 7 mps 760 mmHg 75%
    07:00 +4°C° 0 mm 7 mps 760 mmHg 73%
    08:00 +4°C° 0 mm 8 mps 759 mmHg 72%
    09:00 +4°C° 0 mm 8 mps 759 mmHg 70%
    10:00 +5°C° 0 mm 9 mps 758 mmHg 68%
    11:00 +5°C° 0 mm 10 mps 757 mmHg 66%
    12:00 +6°C° 0 mm 11 mps 756 mmHg 64%
    13:00 +6°C° 0 mm 11 mps 755 mmHg 63%
    14:00 +6°C° 0 mm 11 mps 754 mmHg 62%
    15:00 +5°C° 0 mm 12 mps 752 mmHg 61%
    16:00 +5°C° 0.2 mm 12 mps 752 mmHg 66%
    17:00 +4°C° 0.2 mm 12 mps 751 mmHg 70%
    18:00 +3°C° 0.2 mm 12 mps 751 mmHg 75%
    19:00 +4°C° 0.4 mm 12 mps 750 mmHg 76%
    20:00 +4°C° 0.4 mm 12 mps 750 mmHg 78%
    21:00 +4°C° 0.4 mm 12 mps 749 mmHg 80%
    22:00 +3°C° 2.8 mm 10 mps 750 mmHg 81%
    23:00 +3°C° 2.8 mm 9 mps 750 mmHg 82%
    Show more